MIDAS 3 DEB, 25793

Orbit data source: Space-Track

MIDAS 3 DEB, 25793 is space debris in LEO originally from a launch on Wed, 12 Jul 1961 UTC launched from the Air Force Western Test Range (AFWTR). Debris objects in space refer to the collection of defunct objects orbiting the Earth. Examples of debris include non-operational satellites, rocket bodies, and fragments generated from explosions, collisions, or faulty payload assembly.

Loading next visibility...
Identifier
25793, 1961-018F
Orbit
LEO
Last TLE update
4 days ago
Origin
Manufacturer
Unknown
Mission
Spacecraft
Bus & Motor
Unknown
Mass
Unknown
Launch date (UTC)
1961-07-12 (64 years ago)
Launch vehicle
Unknown
Launch site
Air Force Western Test Range (AFWTR)
Object type
Payload
Rocket body
Debris
Shape & HBR
Unknown
Radar Cross Section
Medium (>0.1 m² and <1 m²)

Expand to show TLE details & history

TLE from 4 days ago
0 MIDAS 3 DEB
1 25793U 61018F   25178.51754880  .00000037  00000-0  12286-1 0  9993
2 25793  91.1253 203.6134 0130945 102.4076 259.1487  8.93206124969746
Epoch: 2025-06-27T12:25Z
TLE epoch observation values (Epoch: 2025-06-27T12:25:16.216Z)
Latitude
0.00004°
Longitude
101.42656°
Altitude
3,462.136 km
Speed
6.357 km/s
True Right ascension
13h 34m 27s
True Declination
0° 00' 00"
Sunlit
Object was in daylight at epoch
Visualization orbit readout
Latitude
-52.81087°
Longitude
103.08775°
Altitude
3,565.708 km
Speed
6.296 km/s
Apparent Right ascension
15h 31m 06s
Apparent Declination
-51° 56' 16"
Sunlit
Object is in daylight
Visualization observer readout
Local Sidereal Time
05:49:22
Azimuth
128.488° SE
Elevation
-63.455°
Doppler factor
1
Orbital elements
Apogee altitude
3,560.306 km
Perigee altitude
3,303.393 km
Semi-major axis
9,809.987 km
Eccentricity
0.01309
Inclination
91.1253°
RAAN
203.6134°
Arg. of periapsis
102.4076°
True anomaly
Unknown
Mean anomaly
259.1487°
Eccentric anomaly
Unknown
Mean motion
2.23378 °/min
Orbital period
161.16 mins
BSTAR
0.012286
Loading maneuver chart data...
Loading SW <> Apogee altitude chart data...
Loading historical data...
Loading historical data...
Loading historical data...
Loading historical data...
Loading historical data...
Loading historical data...
Loading historical data...
Other satellites on launch #18 in the year 1961 (1961-07-12 UTC)

MIDAS 3 DEB Visibility forecast

Observer location: undefined°, undefined°

Span
Click to sort rows by Start time (UTC) header in descending order
Start Az.
Max El. time (UTC)
Max El. Az.
Max El.
End time (UTC)
End Az.
30 mins2025-07-02 00:00:39.881Z132.123° SE2025-07-02 00:15:39.881Z69.492° E34.698°2025-07-02 00:30:39.881Z5.129° NNE
32 mins2025-07-02 02:39:39.881Z199.526° SSW2025-07-02 02:54:39.881Z269.744° W39.721°2025-07-02 03:11:39.881Z351.747° N
27 mins2025-07-02 11:28:39.881Z18.472° NNE2025-07-02 11:41:39.881Z72.823° E26.521°2025-07-02 11:55:39.881Z129.882° SE
32 mins2025-07-02 14:08:39.881Z0.076° NNE2025-07-02 14:23:39.881Z283.262° WNW43.966°2025-07-02 14:40:39.881Z199.379° SSW
17 mins2025-07-02 16:51:39.881Z339.51° N2025-07-02 16:59:39.881Z308.451° NW17.219°2025-07-02 17:08:39.881Z274.78° WNW
|